レモン彗星

C/2018 B1 ( Lemmon )

English version
Home page
Updated on May 20, 2019

---------------------------------------------------------------------

・ プロフィール

発見日 2018年1月25日
発見光度 19.4等
発見者 A. D. Grauer (Mount Lemmon Survey)

・ 写真集

・ 軌道要素

Epoch 2018 Mar. 23.0 TT = JDT 2458200.5
T 2018 Mar. 30.58581 TT                                 MPCW
q   5.1168636            (2000.0)            P               Q
z  -0.0005786      Peri.   68.35614     +0.39408564     +0.89228329
 +/-0.0000009      Node   133.15853     +0.69129040     -0.44572312
e   1.0029606      Incl.  162.42302     +0.60565179     -0.07184312
From 297 observations 2017 Jan. 16-2019 Feb. 24, mean residual 0".5.

・ 光度変化

        m1 = -6.5 + 5 logΔ + 30 log r(t - 200)

---------------------------------------------------------------------

軌道要素はM.P.E.C. 2019-J142に掲載されたものです。
光度グラフはComet for Windowsで作成したものです。

---------------------------------------------------------------------

Copyright(C) Seiichi Yoshida (comet@aerith.net). All rights reserved.